Change the Weather History Date:

Friday, March 1, 2013

  Actual Average (KMAF) Record (KMAF)
Temperature  
Mean Temperature 44 °F 52 °F  
Max Temperature 61 °F 66 °F 89 °F (2006)
Min Temperature 28 °F 38 °F 14 °F (1962)
Degree Days  
Heating Degree Days 20 13  
Month to date heating degree days 13  
Since 1 July heating degree days 2250  
Growing Degree Days 0 (Base 50)    
Moisture  
Dew Point 14 °F    
Average Humidity 33    
Maximum Humidity 59    
Minimum Humidity 14    
Precipitation  
Precipitation 0.00 in 0.02 in 0.28 in (1934)
Month to date precipitation 0.02  
Year to date precipitation 1.29  
Snow  
Snow 0.00 in - - ()
Month to date snowfall  
Since 1 July snowfall  
Snow Depth -    
Sea Level Pressure  
Sea Level Pressure 30.23 in    
Wind  
Wind Speed 8 mph (North)    
Max Wind Speed 20 mph    
Max Gust Speed 28 mph    
Visibility 10 miles    
Events      
T = Trace of Precipitation, MM = Missing Value Source: NWS Daily Summary

Daily Weather History Graph

Daily Weather History Graph

Search for Another Location

Airport or City:

Trip Planner

Search our weather history database for the weather conditions in past years. The results will help you decide how hot, cold, wet, or windy it might be!

Date:

Astronomy

Mar. 01, 2013 Rise Set
Actual Time 7:16 AM CST 6:47 PM CST
Civil Twilight 6:51 AM CST 7:12 PM CST
Nautical Twilight 6:23 AM CST 7:40 PM CST
Astronomical Twilight 5:55 AM CST 8:08 PM CST
Moon 11:03 PM CST (3/1) 9:22 AM CST (3/1)
Length of Visible Light 12h 20m
Length of Day
11h 31m
Waning Gibbous, 83% of the Moon is Illuminated
Mar 1
Waning Gibbous
Mar 4
Last Quarter
Mar 11
New
Mar 19
First Quarter
Mar 27
Full

Hourly Weather History & Observations

Time (CST) Temp. Windchill Dew Point Humidity Pressure Visibility Wind Dir Wind Speed Gust Speed Precip Events Conditions
12:53 AM 37.0 °F 32.4 °F 12.0 °F 36% 30.19 in 10.0 mi West 5.8 mph - N/A   Clear
1:53 AM 34.0 °F 28.0 °F 12.0 °F 40% 30.19 in 10.0 mi NW 6.9 mph - N/A   Clear
2:53 AM 33.1 °F 28.7 °F 12.0 °F 42% 30.18 in 10.0 mi NW 4.6 mph - N/A   Clear
3:53 AM 33.1 °F - 12.9 °F 43% 30.16 in 10.0 mi Calm Calm - N/A   Clear
4:53 AM 28.9 °F 22.8 °F 12.9 °F 51% 30.16 in 10.0 mi NW 5.8 mph - N/A   Clear
5:53 AM 30.9 °F 24.3 °F 16.0 °F 54% 30.17 in 10.0 mi NNW 6.9 mph - N/A   Clear
6:53 AM 30.0 °F 23.2 °F 16.0 °F 56% 30.18 in 10.0 mi NNW 6.9 mph - N/A   Clear
7:53 AM 30.0 °F 24.1 °F 17.1 °F 59% 30.20 in 10.0 mi NW 5.8 mph - N/A   Clear
8:53 AM 37.0 °F 31.6 °F 18.0 °F 46% 30.22 in 10.0 mi North 6.9 mph - N/A   Clear
9:53 AM 44.1 °F 38.1 °F 19.0 °F 37% 30.25 in 10.0 mi NNW 11.5 mph - N/A   Clear
11:53 AM 55.0 °F - 17.1 °F 23% 30.26 in 10.0 mi North 12.7 mph 20.7 mph N/A   Clear
12:53 PM 57.0 °F - 17.1 °F 21% 30.26 in 10.0 mi North 18.4 mph 25.3 mph N/A   Clear
1:53 PM 59.0 °F - 16.0 °F 19% 30.23 in 10.0 mi NNE 15.0 mph 20.7 mph N/A   Clear
2:53 PM 60.1 °F - 14.0 °F 16% 30.22 in 10.0 mi North 17.3 mph 27.6 mph N/A   Clear
3:53 PM 61.0 °F - 14.0 °F 16% 30.22 in 10.0 mi North 13.8 mph 26.5 mph N/A   Clear
4:53 PM 61.0 °F - 10.9 °F 14% 30.24 in 10.0 mi NNW 19.6 mph - N/A   Clear
5:53 PM 59.0 °F - 10.0 °F 14% 30.24 in 10.0 mi North 17.3 mph - N/A   Clear
6:53 PM 54.0 °F - 12.0 °F 19% 30.26 in 10.0 mi North 5.8 mph - N/A   Clear
7:53 PM 46.0 °F 43.1 °F 12.0 °F 25% 30.28 in 10.0 mi NE 5.8 mph - N/A   Clear
8:53 PM 44.1 °F 39.0 °F 12.9 °F 28% 30.26 in 10.0 mi ENE 9.2 mph - N/A   Clear
9:53 PM 41.0 °F 36.4 °F 12.9 °F 32% 30.27 in 10.0 mi ENE 6.9 mph - N/A   Clear
10:53 PM 39.9 °F 34.5 °F 12.9 °F 33% 30.28 in 10.0 mi ENE 8.1 mph - N/A   Clear
11:53 PM 39.0 °F 33.4 °F 12.9 °F 34% 30.28 in 10.0 mi NNE 8.1 mph - N/A   Clear